Location: Zapote
(9.9191°N, 84.0597°W)
Time: 17:51:01
(UTC-06:00)

Transit 2A - Pass Details

Date: 03 March 2021
Orbit: 602 x 957 km, 66.7° (Epoch: 16 April)

Event Time Altitude Azimuth Distance (km) Brightness Sun altitude
Rises 04:07:56 0° 345° (NNW) 2,854 - -25.7°
Reaches altitude 10° 04:10:09 10° 349° (NNW) 1,970 - -25.2°
Exits shadow 04:12:40 33° 2° (N) 1,053 6.7 -24.6°
Maximum altitude 04:14:30 62° 69° (ENE) 722 6.0 -24.1°
Drops below altitude 10° 04:19:12 10° 150° (SSE) 2,117 8.7 -23.0°
Sets 04:21:38 0° 154° (SSE) 3,088 9.5 -22.4°
